Weather History for South St. Paul, MN

Change the Weather History Date:

Sunday, April 6, 2014

  Actual Average (KMSP) Record (KMSP)
Temperature  
Mean Temperature 52 °F 43 °F  
Max Temperature 63 °F 53 °F 86 °F (1991)
Min Temperature 41 °F 33 °F 10 °F (1979)
Degree Days  
Heating Degree Days 13 22  
Month to date heating degree days 141  
Since 1 July heating degree days 6929  
Cooling Degree Days 0 0  
Month to date cooling degree days 0  
Year to date cooling degree days 0  
Growing Degree Days 2 (Base 50)    
Moisture  
Dew Point 36 °F    
Average Humidity 56    
Maximum Humidity 77    
Minimum Humidity 37    
Precipitation  
Precipitation 0.00 in 0.08 in 2.58 in (2006)
Month to date precipitation 0.44  
Year to date precipitation 4.00  
Snow  
Snow 0.00 in 0.10 in 6.00 in (1928)
Month to date snowfall 0.7  
Since 1 July snowfall 52.7  
Snow Depth -    
Sea Level Pressure  
Sea Level Pressure 29.86 in    
Wind  
Wind Speed 6 mph (SSW)    
Max Wind Speed 15 mph    
Max Gust Speed 21 mph    
Visibility 10 miles    
Events      
T = Trace of Precipitation, MM = Missing Value Source: NWS Daily Summary

Daily Weather History Graph

Daily Weather History Graph

Search for Another Location

Airport:

Trip Planner

Search our weather history database for the weather conditions in past years. The results will help you decide how hot, cold, wet, or windy it might be!

Date:

Astronomy

Apr. 06, 2014 Rise Set
Actual Time 6:43 AM CDT 7:46 PM CDT
Civil Twilight 6:13 AM CDT 8:16 PM CDT
Nautical Twilight 5:38 AM CDT 8:51 PM CDT
Astronomical Twilight 5:00 AM CDT 9:29 PM CDT
Moon 11:37 AM CDT (4/6) 1:50 AM CDT (4/6)
Length of Visible Light 14h 02m
Length of Day
13h 02m
Waxing Crescent, 44% of the Moon is Illuminated
Apr 6
Waxing Crescent
Apr 7
First Quarter
Apr 15
Full
Apr 22
Last Quarter
Apr 29
New

Hourly Weather History & Observations

Time (CDT) Temp. Windchill Dew Point Humidity Pressure Visibility Wind Dir Wind Speed Gust Speed Precip Events Conditions
12:12 AM 41.9 °F 40.0 °F 33.6 °F 72% 29.97 in 10.0 mi SE 3.5 mph - N/A   Clear
12:32 AM 41.2 °F 38.2 °F 33.4 °F 74% 29.96 in 10.0 mi SSE 4.6 mph - N/A   Mostly Cloudy
12:52 AM 41.9 °F 39.0 °F 32.9 °F 70% 29.95 in 10.0 mi SSE 4.6 mph - N/A   Mostly Cloudy
1:12 AM 42.6 °F 39.0 °F 32.0 °F 66% 29.95 in 10.0 mi SSE 5.8 mph - N/A   Mostly Cloudy
1:32 AM 42.8 °F 39.3 °F 31.8 °F 65% 29.94 in 10.0 mi SSE 5.8 mph - N/A   Mostly Cloudy
1:52 AM 42.8 °F 40.1 °F 31.5 °F 64% 29.94 in 10.0 mi SSE 4.6 mph - N/A   Overcast
2:12 AM 42.8 °F 40.1 °F 31.1 °F 63% 29.93 in 10.0 mi SSE 4.6 mph - N/A   Overcast
2:32 AM 42.8 °F 41.1 °F 31.1 °F 63% 29.93 in 10.0 mi SSE 3.5 mph - N/A   Overcast
2:52 AM 43.2 °F 39.7 °F 31.1 °F 62% 29.93 in 10.0 mi SSE 5.8 mph - N/A   Overcast
3:12 AM 43.2 °F 40.5 °F 31.1 °F 62% 29.92 in 10.0 mi SSE 4.6 mph - N/A   Overcast
3:32 AM 42.8 °F 40.1 °F 31.1 °F 63% 29.91 in 10.0 mi SSE 4.6 mph - N/A   Mostly Cloudy
3:52 AM 42.8 °F 40.1 °F 31.1 °F 63% 29.91 in 10.0 mi SSE 4.6 mph - N/A   Mostly Cloudy
4:12 AM 42.6 °F 40.9 °F 31.1 °F 64% 29.90 in 10.0 mi SSE 3.5 mph - N/A   Mostly Cloudy
4:32 AM 42.6 °F 39.9 °F 31.1 °F 64% 29.90 in 10.0 mi SSE 4.6 mph - N/A   Scattered Clouds
4:52 AM 42.4 °F 40.7 °F 31.3 °F 65% 29.89 in 10.0 mi SSE 3.5 mph - N/A   Scattered Clouds
5:12 AM 42.1 °F 40.2 °F 31.5 °F 66% 29.88 in 10.0 mi SSE 3.5 mph - N/A   Scattered Clouds
5:31 AM 42.1 °F 40.2 °F 31.5 °F 66% 29.88 in 10.0 mi South 3.5 mph - N/A   Clear
5:52 AM 42.3 °F 39.4 °F 31.6 °F 66% 29.88 in 10.0 mi South 4.6 mph - N/A   Scattered Clouds
6:12 AM 43.3 °F 37.7 °F 31.6 °F 63% 29.88 in 10.0 mi South 10.4 mph - N/A   Scattered Clouds
6:32 AM 43.3 °F 38.1 °F 31.8 °F 64% 29.88 in 10.0 mi South 9.2 mph - N/A   Scattered Clouds
6:52 AM 43.3 °F 38.1 °F 31.8 °F 64% 29.88 in 10.0 mi South 9.2 mph - N/A   Scattered Clouds
7:12 AM 43.7 °F 39.7 °F 31.8 °F 63% 29.88 in 10.0 mi South 6.9 mph - N/A   Clear
7:32 AM 44.4 °F 40.0 °F 32.0 °F 62% 29.88 in 10.0 mi South 8.1 mph - N/A   Scattered Clouds
7:52 AM 44.6 °F 40.7 °F 32.0 °F 61% 29.88 in 10.0 mi South 6.9 mph - N/A   Mostly Cloudy
8:12 AM 44.4 °F 39.5 °F 32.4 °F 63% 29.88 in 10.0 mi South 9.2 mph - N/A   Overcast
8:32 AM 45.3 °F 40.1 °F 33.1 °F 62% 29.88 in 10.0 mi South 10.4 mph - N/A   Scattered Clouds
8:52 AM 45.9 °F 42.9 °F 33.1 °F 61% 29.87 in 10.0 mi South 5.8 mph - N/A   Mostly Cloudy
9:12 AM 47.7 °F - 33.8 °F 59% 29.87 in 10.0 mi South 6.9 mph - N/A   Mostly Cloudy
9:32 AM 49.8 °F - 34.2 °F 55% 29.86 in 10.0 mi SSW 9.2 mph 17.3 mph N/A   Scattered Clouds
9:52 AM 50.2 °F - 34.2 °F 54% 29.86 in 10.0 mi SW 12.7 mph 16.1 mph N/A   Scattered Clouds
10:12 AM 50.7 °F - 34.0 °F 53% 29.86 in 10.0 mi SSW 15.0 mph 20.7 mph N/A   Clear
10:32 AM 51.8 °F - 34.7 °F 52% 29.86 in 10.0 mi SW 13.8 mph 18.4 mph N/A   Clear
10:52 AM 52.7 °F - 34.9 °F 51% 29.85 in 10.0 mi SW 10.4 mph - N/A   Clear
11:12 AM 53.6 °F - 35.1 °F 50% 29.85 in 10.0 mi SW 10.4 mph - N/A   Clear
11:32 AM 54.0 °F - 36.1 °F 51% 29.85 in 10.0 mi SW 12.7 mph - N/A   Clear
11:52 AM 54.1 °F - 36.5 °F 51% 29.85 in 10.0 mi SW 9.2 mph - N/A   Clear
12:12 PM 54.1 °F - 36.7 °F 52% 29.85 in 10.0 mi WSW 10.4 mph - N/A   Clear
12:32 PM 55.4 °F - 37.4 °F 51% 29.84 in 10.0 mi SW 6.9 mph - N/A   Clear
12:52 PM 55.2 °F - 37.4 °F 51% 29.84 in 10.0 mi SW 10.4 mph - N/A   Clear
1:12 PM 56.8 °F - 38.1 °F 50% 29.83 in 10.0 mi SW 8.1 mph - N/A   Clear
1:32 PM 57.7 °F - 38.5 °F 49% 29.82 in 10.0 mi WSW 9.2 mph - N/A   Clear
1:52 PM 58.5 °F - 38.3 °F 47% 29.82 in 10.0 mi WSW 5.8 mph - N/A   Clear
2:12 PM 59.9 °F - 39.6 °F 47% 29.82 in 10.0 mi WSW 5.8 mph - N/A   Clear
2:32 PM 60.1 °F - 39.6 °F 47% 29.81 in 10.0 mi West 6.9 mph - N/A   Clear
2:51 PM 61.2 °F - 39.7 °F 45% 29.81 in 10.0 mi SW 6.9 mph - N/A   Clear
3:12 PM 61.7 °F - 39.9 °F 45% 29.80 in 10.0 mi WSW 9.2 mph - N/A   Clear
3:32 PM 62.6 °F - 39.6 °F 43% 29.80 in 10.0 mi WSW 8.1 mph - N/A   Clear
3:52 PM 62.8 °F - 39.2 °F 42% 29.80 in 10.0 mi West 10.4 mph - N/A   Clear
4:12 PM 63.5 °F - 38.3 °F 39% 29.80 in 10.0 mi WSW 8.1 mph - N/A   Clear
4:32 PM 63.7 °F - 38.7 °F 40% 29.80 in 10.0 mi WSW 8.1 mph - N/A   Clear
4:52 PM 63.5 °F - 38.5 °F 40% 29.80 in 10.0 mi West 5.8 mph - N/A   Clear
5:12 PM 63.9 °F - 37.6 °F 38% 29.80 in 10.0 mi West 9.2 mph - N/A   Clear
5:32 PM 63.7 °F - 38.1 °F 39% 29.80 in 10.0 mi WNW 6.9 mph - N/A   Clear
5:52 PM 63.9 °F - 37.0 °F 37% 29.80 in 10.0 mi NW 5.8 mph - N/A   Clear
6:12 PM 63.5 °F - 36.7 °F 37% 29.80 in 10.0 mi WNW 3.5 mph - N/A   Clear
6:32 PM 63.1 °F - 36.1 °F 37% 29.80 in 10.0 mi West 3.5 mph - N/A   Clear
6:52 PM 62.4 °F - 36.0 °F 37% 29.80 in 10.0 mi West 4.6 mph - N/A   Clear
7:12 PM 60.8 °F - 38.5 °F 44% 29.80 in 10.0 mi NW 3.5 mph - N/A   Clear
7:32 PM 60.1 °F - 38.3 °F 44% 29.80 in 10.0 mi Calm Calm - N/A   Clear
7:52 PM 58.1 °F - 38.3 °F 48% 29.81 in 10.0 mi Calm Calm - N/A   Clear
8:12 PM 56.5 °F - 38.7 °F 51% 29.81 in 10.0 mi Calm Calm - N/A   Clear
8:32 PM 54.9 °F - 38.5 °F 54% 29.82 in 10.0 mi Calm Calm - N/A   Clear
8:52 PM 52.9 °F - 38.3 °F 58% 29.83 in 10.0 mi Calm Calm - N/A   Clear
9:12 PM 51.8 °F - 38.5 °F 60% 29.83 in 10.0 mi Calm Calm - N/A   Clear
9:32 PM 49.3 °F - 37.8 °F 65% 29.84 in 10.0 mi Calm Calm - N/A   Scattered Clouds
9:52 PM 51.1 °F - 39.0 °F 63% 29.84 in 10.0 mi South 4.6 mph - N/A   Mostly Cloudy
10:12 PM 52.9 °F - 42.3 °F 67% 29.85 in 10.0 mi SW 5.8 mph - N/A   Mostly Cloudy
10:32 PM 53.2 °F - 43.3 °F 69% 29.85 in 10.0 mi SW 9.2 mph - N/A   Mostly Cloudy
10:52 PM 53.1 °F - 43.7 °F 71% 29.85 in 10.0 mi SSW 9.2 mph - N/A   Scattered Clouds
11:12 PM 52.7 °F - 43.9 °F 72% 29.85 in 10.0 mi SW 6.9 mph - N/A   Clear
11:32 PM 51.8 °F - 43.5 °F 73% 29.85 in 10.0 mi SW 4.6 mph - N/A   Clear
11:52 PM 50.4 °F - 43.3 °F 77% 29.85 in 10.0 mi SW 4.6 mph - N/A   Clear